• In Österreich
  • Länderverzeichnis
  • Für 7 Tage
  • Wassertemperatur
  • Satellitenkarten
  • Wetterkarte
  • News
  • Widgets
  • user-avatar
    Anmelden

    Stündliche Wetter Trujillo

    Heute, 14 August, Dienstag

    Zeit Temperatur Niederschläge Wind Luftdruck Luftfeuchtigkeit
    00:00 +14°C° 0,1 mm 1 m/S 617 mmHg 91%
    01:00 +14°C° 0 mm 1 m/S 617 mmHg 92%
    02:00 +14°C° 0 mm 1 m/S 617 mmHg 92%
    03:00 +13°C° 0 mm 1 m/S 617 mmHg 92%
    04:00 +13°C° 0 mm 1 m/S 617 mmHg 92%
    05:00 +13°C° 0 mm 1 m/S 617 mmHg 92%
    06:00 +13°C° 0 mm 1 m/S 617 mmHg 92%
    07:00 +16°C° 0 mm 1 m/S 618 mmHg 82%
    08:00 +19°C° 0 mm 1 m/S 619 mmHg 71%
    09:00 +22°C° 0 mm 1 m/S 620 mmHg 61%
    10:00 +23°C° 0 mm 1 m/S 621 mmHg 54%
    11:00 +25°C° 0 mm 2 m/S 621 mmHg 47%
    12:00 +26°C° 0 mm 2 m/S 621 mmHg 40%
    13:00 +26°C° 0 mm 2 m/S 621 mmHg 43%
    14:00 +25°C° 0 mm 2 m/S 620 mmHg 46%
    15:00 +25°C° 0 mm 2 m/S 619 mmHg 48%
    16:00 +23°C° 0,1 mm 1 m/S 618 mmHg 56%
    17:00 +21°C° 0,1 mm 1 m/S 618 mmHg 63%
    18:00 +20°C° 0,1 mm 1 m/S 617 mmHg 70%
    19:00 +19°C° 0,2 mm 1 m/S 618 mmHg 76%
    20:00 +16°C° 0,2 mm 1 m/S 618 mmHg 82%
    21:00 +15°C° 0,2 mm 1 m/S 618 mmHg 87%
    22:00 +15°C° 0,1 mm 1 m/S 618 mmHg 88%
    23:00 +15°C° 0,1 mm 1 m/S 618 mmHg 89%

    Morgen, 15 August, Mittwoch

    Zeit Temperatur Niederschläge Wind Luftdruck Luftfeuchtigkeit
    00:00 +15°C° 0,1 mm 1 m/S 618 mmHg 90%
    01:00 +15°C° 0 mm 1 m/S 617 mmHg 91%
    02:00 +14°C° 0 mm 1 m/S 617 mmHg 92%
    03:00 +14°C° 0 mm 1 m/S 617 mmHg 92%
    04:00 +14°C° 0 mm 1 m/S 617 mmHg 93%
    05:00 +14°C° 0 mm 1 m/S 617 mmHg 93%
    06:00 +14°C° 0 mm 1 m/S 617 mmHg 93%
    07:00 +16°C° 0 mm 1 m/S 618 mmHg 83%
    08:00 +20°C° 0 mm 1 m/S 619 mmHg 73%
    09:00 +22°C° 0 mm 1 m/S 620 mmHg 63%
    10:00 +23°C° 0 mm 1 m/S 621 mmHg 56%
    11:00 +25°C° 0 mm 2 m/S 621 mmHg 49%
    12:00 +27°C° 0 mm 2 m/S 621 mmHg 43%
    13:00 +26°C° 0,1 mm 2 m/S 620 mmHg 47%
    14:00 +25°C° 0,1 mm 2 m/S 619 mmHg 51%
    15:00 +24°C° 0,1 mm 2 m/S 619 mmHg 55%
    16:00 +21°C° 0,6 mm 2 m/S 618 mmHg 64%
    17:00 +20°C° 0,6 mm 1 m/S 618 mmHg 73%
    18:00 +18°C° 0,6 mm 1 m/S 617 mmHg 82%
    19:00 +16°C° 0,4 mm 1 m/S 617 mmHg 85%
    20:00 +15°C° 0,4 mm 1 m/S 617 mmHg 89%
    21:00 +14°C° 0,4 mm 1 m/S 618 mmHg 93%
    22:00 +14°C° 0,2 mm 1 m/S 618 mmHg 93%
    23:00 +14°C° 0,2 mm 1 m/S 618 mmHg 93%

    übermorgen, 16 August, Donnerstag

    Zeit Temperatur Niederschläge Wind Luftdruck Luftfeuchtigkeit
    00:00 +14°C° 0,2 mm 1 m/S 618 mmHg 93%
    01:00 +14°C° 0 mm 1 m/S 617 mmHg 93%
    02:00 +14°C° 0 mm 1 m/S 617 mmHg 93%
    03:00 +13°C° 0 mm 1 m/S 617 mmHg 94%
    04:00 +13°C° 0 mm 1 m/S 617 mmHg 94%
    05:00 +13°C° 0 mm 1 m/S 617 mmHg 93%
    06:00 +13°C° 0 mm 1 m/S 617 mmHg 93%
    07:00 +16°C° 0 mm 1 m/S 618 mmHg 83%
    08:00 +19°C° 0 mm 1 m/S 620 mmHg 73%
    09:00 +22°C° 0 mm 1 m/S 621 mmHg 63%
    10:00 +23°C° 0 mm 1 m/S 621 mmHg 55%
    11:00 +25°C° 0 mm 2 m/S 622 mmHg 47%
    12:00 +27°C° 0 mm 2 m/S 622 mmHg 39%
    13:00 +26°C° 0,1 mm 2 m/S 621 mmHg 45%
    14:00 +24°C° 0,1 mm 2 m/S 620 mmHg 51%
    15:00 +23°C° 0,1 mm 2 m/S 619 mmHg 57%
    16:00 +20°C° 0,8 mm 2 m/S 619 mmHg 65%
    17:00 +20°C° 0,8 mm 1 m/S 618 mmHg 73%
    18:00 +18°C° 0,8 mm 1 m/S 618 mmHg 82%
    19:00 +18°C° 1 mm 1 m/S 618 mmHg 86%
    20:00 +16°C° 1 mm 1 m/S 619 mmHg 90%
    21:00 +15°C° 1 mm 1 m/S 619 mmHg 94%
    22:00 +15°C° 0,6 mm 1 m/S 619 mmHg 95%
    23:00 +15°C° 0,6 mm 1 m/S 619 mmHg 95%

    17 August, Freitag

    Zeit Temperatur Niederschläge Wind Luftdruck Luftfeuchtigkeit
    00:00 +15°C° 0,6 mm 1 m/S 619 mmHg 95%
    01:00 +15°C° 0,7 mm 1 m/S 618 mmHg 95%
    02:00 +15°C° 0,7 mm 1 m/S 618 mmHg 95%
    03:00 +15°C° 0,7 mm 1 m/S 618 mmHg 95%
    04:00 +14°C° 0,9 mm 1 m/S 618 mmHg 95%
    05:00 +14°C° 0,9 mm 1 m/S 618 mmHg 95%
    06:00 +14°C° 0,9 mm 1 m/S 618 mmHg 95%
    07:00 +15°C° 0,2 mm 1 m/S 619 mmHg 92%
    08:00 +16°C° 0,2 mm 1 m/S 619 mmHg 89%
    09:00 +18°C° 0,2 mm 1 m/S 620 mmHg 85%
    10:00 +20°C° 0,3 mm 1 m/S 621 mmHg 77%
    11:00 +21°C° 0,3 mm 1 m/S 621 mmHg 70%
    12:00 +23°C° 0,3 mm 1 m/S 621 mmHg 62%
    13:00 +23°C° 0,9 mm 1 m/S 621 mmHg 65%
    14:00 +22°C° 0,9 mm 1 m/S 620 mmHg 67%
    15:00 +22°C° 0,9 mm 1 m/S 619 mmHg 70%
    16:00 +21°C° 1,5 mm 1 m/S 619 mmHg 74%
    17:00 +18°C° 1,5 mm 0 m/S 619 mmHg 79%
    18:00 +17°C° 1,5 mm 0 m/S 619 mmHg 83%
    19:00 +16°C° 1 mm 0 m/S 619 mmHg 85%
    20:00 +16°C° 1 mm 1 m/S 619 mmHg 88%
    21:00 +15°C° 1 mm 1 m/S 619 mmHg 91%
    22:00 +15°C° 0,2 mm 1 m/S 619 mmHg 91%
    23:00 +15°C° 0,2 mm 1 m/S 619 mmHg 91%

    18 August, Samstag

    Zeit Temperatur Niederschläge Wind Luftdruck Luftfeuchtigkeit
    00:00 +14°C° 0,2 mm 1 m/S 619 mmHg 91%
    01:00 +14°C° 0 mm 1 m/S 618 mmHg 91%
    02:00 +14°C° 0 mm 1 m/S 618 mmHg 91%
    03:00 +14°C° 0 mm 1 m/S 618 mmHg 91%
    04:00 +14°C° 0 mm 1 m/S 618 mmHg 91%
    05:00 +14°C° 0 mm 1 m/S 618 mmHg 91%
    06:00 +14°C° 0 mm 1 m/S 618 mmHg 91%
    07:00 +16°C° 0 mm 1 m/S 619 mmHg 81%
    08:00 +19°C° 0 mm 1 m/S 620 mmHg 71%
    09:00 +22°C° 0 mm 1 m/S 621 mmHg 60%
    10:00 +24°C° 0 mm 1 m/S 622 mmHg 52%
    11:00 +25°C° 0 mm 2 m/S 622 mmHg 44%
    12:00 +27°C° 0 mm 2 m/S 622 mmHg 36%
    13:00 +27°C° 0 mm 2 m/S 621 mmHg 38%
    14:00 +27°C° 0 mm 2 m/S 621 mmHg 39%
    15:00 +27°C° 0 mm 2 m/S 620 mmHg 40%
    16:00 +25°C° 0,1 mm 2 m/S 619 mmHg 48%
    17:00 +23°C° 0,1 mm 1 m/S 619 mmHg 56%
    18:00 +20°C° 0,1 mm 1 m/S 618 mmHg 65%
    19:00 +19°C° 0,7 mm 1 m/S 618 mmHg 72%
    20:00 +18°C° 0,7 mm 1 m/S 618 mmHg 78%
    21:00 +15°C° 0,7 mm 1 m/S 618 mmHg 85%
    22:00 +15°C° 0,4 mm 1 m/S 618 mmHg 86%
    23:00 +15°C° 0,4 mm 1 m/S 618 mmHg 87%

    19 August, Sonntag

    Zeit Temperatur Niederschläge Wind Luftdruck Luftfeuchtigkeit
    00:00 +15°C° 0,4 mm 1 m/S 618 mmHg 88%
    01:00 +15°C° 0,1 mm 1 m/S 617 mmHg 89%
    02:00 +15°C° 0,1 mm 1 m/S 617 mmHg 89%
    03:00 +15°C° 0,1 mm 1 m/S 617 mmHg 90%
    04:00 +14°C° 0 mm 1 m/S 617 mmHg 91%
    05:00 +14°C° 0 mm 1 m/S 617 mmHg 91%
    06:00 +14°C° 0 mm 1 m/S 618 mmHg 92%
    07:00 +18°C° 0 mm 1 m/S 619 mmHg 83%
    08:00 +20°C° 0 mm 1 m/S 620 mmHg 73%
    09:00 +22°C° 0 mm 1 m/S 621 mmHg 64%
    10:00 +24°C° 0,2 mm 1 m/S 621 mmHg 58%
    11:00 +25°C° 0,2 mm 1 m/S 621 mmHg 53%
    12:00 +26°C° 0,2 mm 2 m/S 621 mmHg 48%
    13:00 +26°C° 0,1 mm 2 m/S 620 mmHg 49%
    14:00 +25°C° 0,1 mm 2 m/S 620 mmHg 50%
    15:00 +25°C° 0,1 mm 2 m/S 619 mmHg 52%
    16:00 +23°C° 0,1 mm 1 m/S 619 mmHg 58%
    17:00 +21°C° 0,1 mm 1 m/S 618 mmHg 65%
    18:00 +20°C° 0,1 mm 1 m/S 618 mmHg 72%
    19:00 +19°C° 0 mm 1 m/S 618 mmHg 77%
    20:00 +18°C° 0 mm 1 m/S 618 mmHg 83%
    21:00 +16°C° 0 mm 1 m/S 618 mmHg 88%
    22:00 +15°C° 0 mm 1 m/S 618 mmHg 89%
    23:00 +15°C° 0 mm 1 m/S 618 mmHg 91%
    Mehr zeigen